Weather History for KAMA - January, 2013

Change the Weather History Date:

Monday, January 28, 2013

  Actual Average Record
Temperature  
Mean Temperature 57 °F 38 °F  
Max Temperature 73 °F 52 °F 76 °F (2002)
Min Temperature 40 °F 24 °F -2 °F (1966)
Degree Days  
Heating Degree Days 8 27  
Month to date heating degree days 732 787  
Since 1 July heating degree days 2089 2504  
Cooling Degree Days 0 0  
Month to date cooling degree days 0 0  
Year to date cooling degree days 0 0  
Growing Degree Days 6 (Base 50)    
Moisture  
Dew Point 31 °F    
Average Humidity 42    
Maximum Humidity 67    
Minimum Humidity 17    
Precipitation  
Precipitation 0.00 in 0.03 in 1.06 in (1895)
Month to date precipitation 0.68 0.64  
Year to date precipitation 0.68 0.64  
Snow  
Snow 0.00 in 0.20 in 12.00 in (1895)
Month to date snowfall 0.2 4.1  
Since 1 July snowfall 2.3 10.5  
Snow Depth 0.00 in    
Sea Level Pressure  
Sea Level Pressure 29.73 in    
Wind  
Wind Speed 18 mph (SW)    
Max Wind Speed 36 mph    
Max Gust Speed 44 mph    
Visibility 10 miles    
Events      
T = Trace of Precipitation, MM = Missing Value Source: NWS Daily Summary

Daily Weather History Graph

Daily Weather History Graph

Search for Another Location

Airport or City:

Trip Planner

Search our weather history database for the weather conditions in past years. The results will help you decide how hot, cold, wet, or windy it might be!

Date:

Astronomy

Jan. 28, 2013 Rise Set
Actual Time 7:48 AM CST 6:11 PM CST
Civil Twilight 7:21 AM CST 6:38 PM CST
Nautical Twilight 6:51 AM CST 7:08 PM CST
Astronomical Twilight 6:21 AM CST 7:38 PM CST
Moon 8:01 PM CST (1/28) 8:20 AM CST (1/28)
Length of Visible Light 11h 16m
Length of Day
10h 22m
Full, 98% of the Moon is Illuminated
Jan 28
Full
Feb 3
Last Quarter
Feb 10
New
Feb 17
First Quarter
Feb 25
Full

Hourly Weather History & Observations

Time (CST) Temp. Windchill Dew Point Humidity Pressure Visibility Wind Dir Wind Speed Gust Speed Precip Events Conditions
12:53 AM 48.9 °F - 32.0 °F 52% 29.81 in 10.0 mi SSW 11.5 mph - N/A   Clear
1:53 AM 48.9 °F - 32.0 °F 52% 29.79 in 10.0 mi SW 10.4 mph - N/A   Clear
2:53 AM 50.0 °F - 33.1 °F 52% 29.78 in 10.0 mi SW 11.5 mph - N/A   Clear
3:53 AM 46.9 °F - 32.0 °F 56% 29.80 in 10.0 mi SW 13.8 mph - N/A   Clear
4:53 AM 43.0 °F 36.0 °F 30.9 °F 62% 29.81 in 10.0 mi SSW 13.8 mph - N/A   Clear
5:53 AM 42.1 °F 35.7 °F 30.9 °F 65% 29.80 in 10.0 mi SSW 11.5 mph - N/A   Clear
6:53 AM 43.0 °F 36.8 °F 32.0 °F 65% 29.82 in 10.0 mi SSW 11.5 mph - N/A   Clear
7:53 AM 42.1 °F 39.2 °F 32.0 °F 67% 29.83 in 10.0 mi SSW 4.6 mph - N/A   Clear
8:53 AM 46.0 °F 41.4 °F 33.1 °F 61% 29.84 in 10.0 mi SSW 9.2 mph - N/A   Clear
9:53 AM 52.0 °F - 35.1 °F 53% 29.81 in 10.0 mi SSW 11.5 mph - N/A   Clear
10:53 AM 61.0 °F - 37.0 °F 41% 29.77 in 10.0 mi SW 17.3 mph 24.2 mph N/A   Clear
11:53 AM 66.9 °F - 37.0 °F 33% 29.76 in 10.0 mi SW 24.2 mph 35.7 mph N/A   Clear
12:53 PM 69.1 °F - 34.0 °F 27% 29.71 in 10.0 mi SW 28.8 mph 38.0 mph N/A   Clear
1:53 PM 71.1 °F - 30.9 °F 23% 29.66 in 10.0 mi SW 25.3 mph 35.7 mph N/A   Scattered Clouds
2:53 PM 71.1 °F - 25.0 °F 18% 29.63 in 10.0 mi SW 24.2 mph 35.7 mph N/A   Partly Cloudy
3:53 PM 70.0 °F - 26.1 °F 19% 29.64 in 10.0 mi SSW 26.5 mph 41.4 mph N/A   Partly Cloudy
4:53 PM 68.0 °F - 27.0 °F 21% 29.65 in 10.0 mi SSW 27.6 mph 34.5 mph N/A   Clear
5:53 PM 64.9 °F - 28.9 °F 26% 29.67 in 10.0 mi SSW 19.6 mph 26.5 mph N/A   Clear
6:53 PM 62.1 °F - 28.0 °F 28% 29.67 in 10.0 mi SSW 18.4 mph - N/A   Partly Cloudy
7:53 PM 60.1 °F - 28.0 °F 30% 29.70 in 10.0 mi SSW 17.3 mph - N/A   Clear
8:53 PM 62.1 °F - 27.0 °F 26% 29.69 in 10.0 mi SW 24.2 mph 32.2 mph N/A   Clear
9:53 PM 61.0 °F - 27.0 °F 27% 29.68 in 10.0 mi SW 28.8 mph 36.8 mph N/A   Clear
10:53 PM 57.9 °F - 27.0 °F 31% 29.63 in 10.0 mi WSW 18.4 mph - N/A   Clear
11:53 PM 57.0 °F - 28.0 °F 33% 29.62 in 10.0 mi WSW 12.7 mph - N/A   Scattered Clouds